owner,sensor,date,latitude,longitude,vertical_datum,direction_of_sea_water_velocity,sea_water_speed,upward_sea_water_velocity,qcFlag 
TABS,ioos:station:wmo:42043:1,2008-12-01T00:00:00Z,28.9818,-94.9186,2.0,99.25606932,46.13065467,-99999.0,'11111222,11111222,99999999' 
TABS,ioos:station:wmo:42043:1,2008-12-01T00:30:00Z,28.9818,-94.9186,2.0,102.8063563,47.91182318,-99999.0,'11111222,11111222,99999999' 
TABS,ioos:station:wmo:42043:1,2008-12-01T01:00:00Z,28.9818,-94.9186,2.0,99.55102465,55.20524613,-99999.0,'11111222,11111222,99999999' 
TABS,ioos:station:wmo:42043:1,2008-12-01T01:30:00Z,28.9818,-94.9186,2.0,103.488248,56.80686666,-99999.0,'11111222,11111222,99999999' 
TABS,ioos:station:wmo:42043:1,2008-12-01T02:00:00Z,28.9818,-94.9186,2.0,103.8709945,56.35338677,-99999.0,'11111222,11111222,99999999' 
TABS,ioos:station:wmo:42043:1,2008-12-01T02:30:00Z,28.9818,-94.9186,2.0,105.0836552,55.98900338,-99999.0,'11111222,11111222,99999999' 
TABS,ioos:station:wmo:42043:1,2008-12-01T03:00:00Z,28.9818,-94.9186,2.0,103.602294,55.40400166,-99999.0,'11111222,11111222,99999999' 
TABS,ioos:station:wmo:42043:1,2008-12-01T03:30:00Z,28.9818,-94.9186,2.0,103.0231257,49.65723009,-99999.0,'11111222,11111222,99999999' 
TABS,ioos:station:wmo:42043:1,2008-12-01T04:00:00Z,28.9818,-94.9186,2.0,102.5153722,50.99167481,-99999.0,'11111222,11111222,99999999' 
TABS,ioos:station:wmo:42043:1,2008-12-01T04:30:00Z,28.9818,-94.9186,2.0,99.69351904,52.1444954,-99999.0,'11111222,11111222,99999999' 
TABS,ioos:station:wmo:42043:1,2008-12-01T05:00:00Z,28.9818,-94.9186,2.0,97.76514786,53.06661191,-99999.0,'11111222,11111222,99999999' 
TABS,ioos:station:wmo:42043:1,2008-12-01T05:30:00Z,28.9818,-94.9186,2.0,98.51503431,54.09630394,-99999.0,'11111222,11111222,99999999' 
TABS,ioos:station:wmo:42043:1,2008-12-01T06:00:00Z,28.9818,-94.9186,2.0,96.80129892,55.98397092,-99999.0,'11111222,11111222,99999999' 
TABS,ioos:station:wmo:42043:1,2008-12-01T06:30:00Z,28.9818,-94.9186,2.0,94.46141606,56.04983497,-99999.0,'11111222,11111222,99999999' 
TABS,ioos:station:wmo:42043:1,2008-12-01T07:00:00Z,28.9818,-94.9186,2.0,92.29219756,57.5060136,-99999.0,'11111222,11111222,99999999' 
TABS,ioos:station:wmo:42043:1,2008-12-01T07:30:00Z,28.9818,-94.9186,2.0,92.64963897,55.80966673,-99999.0,'11111222,11111222,99999999' 
TABS,ioos:station:wmo:42043:1,2008-12-01T08:00:00Z,28.9818,-94.9186,2.0,88.82179634,55.44172165,-99999.0,'11111222,11111222,99999999' 
TABS,ioos:station:wmo:42043:1,2008-12-01T08:30:00Z,28.9818,-94.9186,2.0,88.35986967,55.20261588,-99999.0,'11111222,11111222,99999999' 
TABS,ioos:station:wmo:42043:1,2008-12-01T09:00:00Z,28.9818,-94.9186,2.0,87.84484181,54.7787477,-99999.0,'11111222,11111222,99999999' 
TABS,ioos:station:wmo:42043:1,2008-12-01T09:30:00Z,28.9818,-94.9186,2.0,87.56186491,57.12171041,-99999.0,'11111222,11111222,99999999' 
TABS,ioos:station:wmo:42043:1,2008-12-01T10:00:00Z,28.9818,-94.9186,2.0,89.51006398,60.81222328,-99999.0,'11111222,11111222,99999999' 
TABS,ioos:station:wmo:42043:1,2008-12-01T10:30:00Z,28.9818,-94.9186,2.0,90.85664069,60.86680294,-99999.0,'11111222,11111222,99999999' 
TABS,ioos:station:wmo:42043:1,2008-12-01T11:00:00Z,28.9818,-94.9186,2.0,91.65553827,59.53485114,-99999.0,'11111222,11111222,99999999' 
TABS,ioos:station:wmo:42043:1,2008-12-01T11:30:00Z,28.9818,-94.9186,2.0,91.96469266,59.79515114,-99999.0,'11111222,11111222,99999999' 
TABS,ioos:station:wmo:42043:1,2008-12-01T12:00:00Z,28.9818,-94.9186,2.0,96.39025962,61.90462422,-99999.0,'11111222,11111222,99999999' 
TABS,ioos:station:wmo:42043:1,2008-12-01T12:30:00Z,28.9818,-94.9186,2.0,99.73207645,64.24454841,-99999.0,'11111222,11111222,99999999' 
TABS,ioos:station:wmo:42043:1,2008-12-01T13:00:00Z,28.9818,-94.9186,2.0,98.53905407,64.78818797,-99999.0,'11111222,11111222,99999999' 
TABS,ioos:station:wmo:42043:1,2008-12-01T13:30:00Z,28.9818,-94.9186,2.0,98.92004912,56.10859916,-99999.0,'11111222,11111222,99999999' 
TABS,ioos:station:wmo:42043:1,2008-12-01T14:00:00Z,28.9818,-94.9186,2.0,102.3066642,61.55447993,-99999.0,'11111222,11111222,99999999' 
TABS,ioos:station:wmo:42043:1,2008-12-01T14:30:00Z,28.9818,-94.9186,2.0,96.93125951,55.02212282,-99999.0,'11111222,11111222,99999999' 
TABS,ioos:station:wmo:42043:1,2008-12-01T15:00:00Z,28.9818,-94.9186,2.0,97.48956332,54.77732834,-99999.0,'11111222,11111222,99999999' 
TABS,ioos:station:wmo:42043:1,2008-12-01T15:30:00Z,28.9818,-94.9186,2.0,100.7678074,55.34448934,-99999.0,'11111222,11111222,99999999' 
TABS,ioos:station:wmo:42043:1,2008-12-01T16:00:00Z,28.9818,-94.9186,2.0,93.72481595,52.95185738,-99999.0,'11111222,11111222,99999999' 
TABS,ioos:station:wmo:42043:1,2008-12-01T16:30:00Z,28.9818,-94.9186,2.0,92.76739289,55.71497644,-99999.0,'11111222,11111222,99999999' 
TABS,ioos:station:wmo:42043:1,2008-12-01T17:00:00Z,28.9818,-94.9186,2.0,82.00977798,54.45869811,-99999.0,'11111222,11111222,99999999' 
TABS,ioos:station:wmo:42043:1,2008-12-01T17:30:00Z,28.9818,-94.9186,2.0,81.59164245,55.32468708,-99999.0,'11111222,11111222,99999999' 
TABS,ioos:station:wmo:42043:1,2008-12-01T18:00:00Z,28.9818,-94.9186,2.0,78.98652701,56.48024168,-99999.0,'11111222,11111222,99999999' 
TABS,ioos:station:wmo:42043:1,2008-12-01T18:30:00Z,28.9818,-94.9186,2.0,73.27342124,60.14479279,-99999.0,'11111222,11111222,99999999' 
TABS,ioos:station:wmo:42043:1,2008-12-01T19:00:00Z,28.9818,-94.9186,2.0,72.67875475,62.64074153,-99999.0,'11111222,11111222,99999999' 
TABS,ioos:station:wmo:42043:1,2008-12-01T19:30:00Z,28.9818,-94.9186,2.0,70.90531965,67.55705441,-99999.0,'11111222,11111222,99999999' 
TABS,ioos:station:wmo:42043:1,2008-12-01T20:00:00Z,28.9818,-94.9186,2.0,68.12306816,67.5764493,-99999.0,'11111222,11111222,99999999' 
TABS,ioos:station:wmo:42043:1,2008-12-01T20:30:00Z,28.9818,-94.9186,2.0,74.83357983,72.54681799,-99999.0,'11111222,11111222,99999999' 
TABS,ioos:station:wmo:42043:1,2008-12-01T21:00:00Z,28.9818,-94.9186,2.0,73.22982768,74.23734101,-99999.0,'11111222,11111222,99999999' 
TABS,ioos:station:wmo:42043:1,2008-12-01T21:30:00Z,28.9818,-94.9186,2.0,73.49618917,79.48471866,-99999.0,'11111222,11111222,99999999' 
TABS,ioos:station:wmo:42043:1,2008-12-01T22:00:00Z,28.9818,-94.9186,2.0,71.3681865,76.37261878,-99999.0,'11111222,11111222,99999999' 
TABS,ioos:station:wmo:42043:1,2008-12-01T22:30:00Z,28.9818,-94.9186,2.0,75.55271756,79.44216324,-99999.0,'11111222,11111222,99999999' 
TABS,ioos:station:wmo:42043:1,2008-12-01T23:00:00Z,28.9818,-94.9186,2.0,73.69953707,77.34921913,-99999.0,'11111222,11111222,99999999' 
TABS,ioos:station:wmo:42043:1,2008-12-01T23:30:00Z,28.9818,-94.9186,2.0,71.67056584,73.86776902,-99999.0,'11111222,11111222,99999999' 
TABS,ioos:station:wmo:42043:1,2008-12-02T00:00:00Z,28.9818,-94.9186,2.0,75.52074324,75.59091281,-99999.0,'11111222,11111222,99999999' 
TABS,ioos:station:wmo:42043:1,2008-12-02T00:30:00Z,28.9818,-94.9186,2.0,77.25689427,71.0397987,-99999.0,'11111222,11111222,99999999' 
TABS,ioos:station:wmo:42043:1,2008-12-02T01:00:00Z,28.9818,-94.9186,2.0,76.38289521,63.33017132,-99999.0,'11111222,11111222,99999999' 
TABS,ioos:station:wmo:42043:1,2008-12-02T01:30:00Z,28.9818,-94.9186,2.0,81.06654427,61.62758554,-99999.0,'11111222,11111222,99999999' 
TABS,ioos:station:wmo:42043:1,2008-12-02T02:00:00Z,28.9818,-94.9186,2.0,81.57305068,59.50242012,-99999.0,'11111222,11111222,99999999' 
TABS,ioos:station:wmo:42043:1,2008-12-02T02:30:00Z,28.9818,-94.9186,2.0,82.52255865,55.2498371,-99999.0,'11111222,11111222,99999999' 
TABS,ioos:station:wmo:42043:1,2008-12-02T03:00:00Z,28.9818,-94.9186,2.0,80.71115629,53.21784005,-99999.0,'11111222,11111222,99999999' 
TABS,ioos:station:wmo:42043:1,2008-12-02T03:30:00Z,28.9818,-94.9186,2.0,82.39905277,53.90363439,-99999.0,'11111222,11111222,99999999' 
TABS,ioos:station:wmo:42043:1,2008-12-02T04:00:00Z,28.9818,-94.9186,2.0,77.1977506,51.13109132,-99999.0,'11111222,11111222,99999999' 
TABS,ioos:station:wmo:42043:1,2008-12-02T04:30:00Z,28.9818,-94.9186,2.0,75.50418054,53.21402823,-99999.0,'11111222,11111222,99999999' 
TABS,ioos:station:wmo:42043:1,2008-12-02T05:00:00Z,28.9818,-94.9186,2.0,73.05771092,51.47404783,-99999.0,'11111222,11111222,99999999' 
TABS,ioos:station:wmo:42043:1,2008-12-02T05:30:00Z,28.9818,-94.9186,2.0,79.02149791,47.4687434,-99999.0,'11111222,11111222,99999999' 
TABS,ioos:station:wmo:42043:1,2008-12-02T06:00:00Z,28.9818,-94.9186,2.0,73.02275094,48.35738723,-99999.0,'11111222,11111222,99999999' 
TABS,ioos:station:wmo:42043:1,2008-12-02T06:30:00Z,28.9818,-94.9186,2.0,71.18129346,43.4316958,-99999.0,'11111222,11111222,99999999' 
TABS,ioos:station:wmo:42043:1,2008-12-02T07:00:00Z,28.9818,-94.9186,2.0,71.28047634,45.83461792,-99999.0,'11111222,11111222,99999999' 
TABS,ioos:station:wmo:42043:1,2008-12-02T07:30:00Z,28.9818,-94.9186,2.0,70.49181256,44.73826662,-99999.0,'11111222,11111222,99999999' 
TABS,ioos:station:wmo:42043:1,2008-12-02T08:00:00Z,28.9818,-94.9186,2.0,75.434565,44.37621097,-99999.0,'11111222,11111222,99999999' 
TABS,ioos:station:wmo:42043:1,2008-12-02T08:30:00Z,28.9818,-94.9186,2.0,67.79705983,44.51040889,-99999.0,'11111222,11111222,99999999' 
TABS,ioos:station:wmo:42043:1,2008-12-02T09:00:00Z,28.9818,-94.9186,2.0,66.07953881,41.58148266,-99999.0,'11111222,11111222,99999999' 
TABS,ioos:station:wmo:42043:1,2008-12-02T09:30:00Z,28.9818,-94.9186,2.0,67.9739216,38.82362296,-99999.0,'11111222,11111222,99999999' 
TABS,ioos:station:wmo:42043:1,2008-12-02T10:00:00Z,28.9818,-94.9186,2.0,65.93308318,37.86130611,-99999.0,'11111222,11111222,99999999' 
TABS,ioos:station:wmo:42043:1,2008-12-02T10:30:00Z,28.9818,-94.9186,2.0,66.15735312,36.90994446,-99999.0,'11111222,11111222,99999999' 
TABS,ioos:station:wmo:42043:1,2008-12-02T11:00:00Z,28.9818,-94.9186,2.0,65.72561563,35.24623384,-99999.0,'11111222,11111222,99999999' 
TABS,ioos:station:wmo:42043:1,2008-12-02T11:30:00Z,28.9818,-94.9186,2.0,63.03350633,31.90947351,-99999.0,'11111222,11111222,99999999' 
TABS,ioos:station:wmo:42043:1,2008-12-02T12:00:00Z,28.9818,-94.9186,2.0,59.1424188,33.33938212,-99999.0,'11111222,11111222,99999999' 
TABS,ioos:station:wmo:42043:1,2008-12-02T12:30:00Z,28.9818,-94.9186,2.0,60.56873386,29.69187936,-99999.0,'11111222,11111222,99999999' 
TABS,ioos:station:wmo:42043:1,2008-12-02T13:00:00Z,28.9818,-94.9186,2.0,58.70180516,29.3747783,-99999.0,'11111222,11111222,99999999' 
TABS,ioos:station:wmo:42043:1,2008-12-02T13:30:00Z,28.9818,-94.9186,2.0,52.76154575,29.53061124,-99999.0,'11111222,11111222,99999999' 
TABS,ioos:station:wmo:42043:1,2008-12-02T14:00:00Z,28.9818,-94.9186,2.0,57.18697252,29.17510069,-99999.0,'11111222,11111222,99999999' 
TABS,ioos:station:wmo:42043:1,2008-12-02T14:30:00Z,28.9818,-94.9186,2.0,57.32967519,28.67699426,-99999.0,'11111222,11111222,99999999' 
TABS,ioos:station:wmo:42043:1,2008-12-02T15:00:00Z,28.9818,-94.9186,2.0,50.05057586,29.55868739,-99999.0,'11111222,11111222,99999999' 
TABS,ioos:station:wmo:42043:1,2008-12-02T15:30:00Z,28.9818,-94.9186,2.0,50.60617022,28.15731699,-99999.0,'11111222,11111222,99999999' 
TABS,ioos:station:wmo:42043:1,2008-12-02T16:00:00Z,28.9818,-94.9186,2.0,49.70335615,28.9758106,-99999.0,'11111222,11111222,99999999' 
TABS,ioos:station:wmo:42043:1,2008-12-02T16:30:00Z,28.9818,-94.9186,2.0,53.11902418,30.79200058,-99999.0,'11111222,11111222,99999999' 
TABS,ioos:station:wmo:42043:1,2008-12-02T17:00:00Z,28.9818,-94.9186,2.0,53.44562688,31.96848448,-99999.0,'11111222,11111222,99999999' 
TABS,ioos:station:wmo:42043:1,2008-12-02T17:30:00Z,28.9818,-94.9186,2.0,54.2933921,33.10282163,-99999.0,'11111222,11111222,99999999' 
TABS,ioos:station:wmo:42043:1,2008-12-02T18:00:00Z,28.9818,-94.9186,2.0,51.37068651,32.37326366,-99999.0,'11111222,11111222,99999999' 
TABS,ioos:station:wmo:42043:1,2008-12-02T18:30:00Z,28.9818,-94.9186,2.0,49.03034463,34.40805138,-99999.0,'11111222,11111222,99999999' 
TABS,ioos:station:wmo:42043:1,2008-12-02T19:00:00Z,28.9818,-94.9186,2.0,51.91057288,32.79342922,-99999.0,'11111222,11111222,99999999' 
TABS,ioos:station:wmo:42043:1,2008-12-02T19:30:00Z,28.9818,-94.9186,2.0,51.42414863,36.27608027,-99999.0,'11111222,11111222,99999999' 
TABS,ioos:station:wmo:42043:1,2008-12-02T20:00:00Z,28.9818,-94.9186,2.0,48.97938388,37.19155415,-99999.0,'11111222,11111222,99999999' 
TABS,ioos:station:wmo:42043:1,2008-12-02T20:30:00Z,28.9818,-94.9186,2.0,48.68131349,39.75779295,-99999.0,'11111222,11111222,99999999' 
TABS,ioos:station:wmo:42043:1,2008-12-02T21:00:00Z,28.9818,-94.9186,2.0,55.27903712,34.99060588,-99999.0,'11111222,11111222,99999999' 
TABS,ioos:station:wmo:42043:1,2008-12-02T21:30:00Z,28.9818,-94.9186,2.0,53.53606822,38.39696342,-99999.0,'11111222,11111222,99999999' 
TABS,ioos:station:wmo:42043:1,2008-12-02T22:00:00Z,28.9818,-94.9186,2.0,53.55564347,37.97704702,-99999.0,'11111222,11111222,99999999' 
TABS,ioos:station:wmo:42043:1,2008-12-02T22:30:00Z,28.9818,-94.9186,2.0,58.79937545,37.73858635,-99999.0,'11111222,11111222,99999999' 
TABS,ioos:station:wmo:42043:1,2008-12-02T23:00:00Z,28.9818,-94.9186,2.0,58.39649784,38.24142388,-99999.0,'11111222,11111222,99999999' 
TABS,ioos:station:wmo:42043:1,2008-12-02T23:30:00Z,28.9818,-94.9186,2.0,59.75260777,36.76530974,-99999.0,'11111222,11111222,99999999' 
TABS,ioos:station:wmo:42043:1,2008-12-03T00:00:00Z,28.9818,-94.9186,2.0,60.55595004,36.86115028,-99999.0,'11111222,11111222,99999999' 
TABS,ioos:station:wmo:42043:1,2008-12-03T00:30:00Z,28.9818,-94.9186,2.0,64.14536405,37.5151596,-99999.0,'11111222,11111222,99999999' 
TABS,ioos:station:wmo:42043:1,2008-12-03T01:00:00Z,28.9818,-94.9186,2.0,66.38659135,39.16973577,-99999.0,'11111222,11111222,99999999' 
TABS,ioos:station:wmo:42043:1,2008-12-03T01:30:00Z,28.9818,-94.9186,2.0,69.6667812,37.3258744,-99999.0,'11111222,11111222,99999999' 
TABS,ioos:station:wmo:42043:1,2008-12-03T02:00:00Z,28.9818,-94.9186,2.0,72.15714207,34.88810972,-99999.0,'11111222,11111222,99999999' 
TABS,ioos:station:wmo:42043:1,2008-12-03T02:30:00Z,28.9818,-94.9186,2.0,71.1628654,35.58598741,-99999.0,'11111222,11111222,99999999' 
TABS,ioos:station:wmo:42043:1,2008-12-03T03:00:00Z,28.9818,-94.9186,2.0,69.99319448,35.04489977,-99999.0,'11111222,11111222,99999999' 
TABS,ioos:station:wmo:42043:1,2008-12-03T03:30:00Z,28.9818,-94.9186,2.0,73.15406123,34.78261779,-99999.0,'11111222,11111222,99999999' 
TABS,ioos:station:wmo:42043:1,2008-12-03T04:00:00Z,28.9818,-94.9186,2.0,76.10829257,32.6963316,-99999.0,'11111222,11111222,99999999' 
TABS,ioos:station:wmo:42043:1,2008-12-03T04:30:00Z,28.9818,-94.9186,2.0,75.19571097,34.55715555,-99999.0,'11111222,11111222,99999999' 
TABS,ioos:station:wmo:42043:1,2008-12-03T05:00:00Z,28.9818,-94.9186,2.0,74.95899822,33.33194564,-99999.0,'11111222,11111222,99999999' 
TABS,ioos:station:wmo:42043:1,2008-12-03T05:30:00Z,28.9818,-94.9186,2.0,77.89635835,31.42866526,-99999.0,'11111222,11111222,99999999' 
TABS,ioos:station:wmo:42043:1,2008-12-03T06:00:00Z,28.9818,-94.9186,2.0,79.26636743,33.34339065,-99999.0,'11111222,11111222,99999999' 
TABS,ioos:station:wmo:42043:1,2008-12-03T06:30:00Z,28.9818,-94.9186,2.0,70.13260517,34.28031651,-99999.0,'11111222,11111222,99999999' 
TABS,ioos:station:wmo:42043:1,2008-12-03T07:00:00Z,28.9818,-94.9186,2.0,77.54524945,31.9007351,-99999.0,'11111222,11111222,99999999' 
TABS,ioos:station:wmo:42043:1,2008-12-03T07:30:00Z,28.9818,-94.9186,2.0,75.06300195,32.86036214,-99999.0,'11111222,11111222,99999999' 
TABS,ioos:station:wmo:42043:1,2008-12-03T08:00:00Z,28.9818,-94.9186,2.0,76.39171967,28.90135118,-99999.0,'11111222,11111222,99999999' 
TABS,ioos:station:wmo:42043:1,2008-12-03T08:30:00Z,28.9818,-94.9186,2.0,73.7456125,27.75960014,-99999.0,'11111222,11111222,99999999' 
TABS,ioos:station:wmo:42043:1,2008-12-03T09:00:00Z,28.9818,-94.9186,2.0,72.91948426,28.49692089,-99999.0,'11111222,11111222,99999999' 
TABS,ioos:station:wmo:42043:1,2008-12-03T09:30:00Z,28.9818,-94.9186,2.0,77.45790373,27.99813029,-99999.0,'11111222,11111222,99999999' 
TABS,ioos:station:wmo:42043:1,2008-12-03T10:00:00Z,28.9818,-94.9186,2.0,72.94422979,26.93459671,-99999.0,'11111222,11111222,99999999' 
TABS,ioos:station:wmo:42043:1,2008-12-03T10:30:00Z,28.9818,-94.9186,2.0,64.60605892,27.35282435,-99999.0,'11111222,11111222,99999999' 
TABS,ioos:station:wmo:42043:1,2008-12-03T11:00:00Z,28.9818,-94.9186,2.0,65.70704597,24.8175039,-99999.0,'11111222,11111222,99999999' 
TABS,ioos:station:wmo:42043:1,2008-12-03T11:30:00Z,28.9818,-94.9186,2.0,59.95398431,27.84122124,-99999.0,'11111222,11111222,99999999' 
TABS,ioos:station:wmo:42043:1,2008-12-03T12:00:00Z,28.9818,-94.9186,2.0,67.24784358,27.64084297,-99999.0,'11111222,11111222,99999999' 
TABS,ioos:station:wmo:42043:1,2008-12-03T12:30:00Z,28.9818,-94.9186,2.0,58.04003745,25.44737708,-99999.0,'11111222,11111222,99999999' 
TABS,ioos:station:wmo:42043:1,2008-12-03T13:00:00Z,28.9818,-94.9186,2.0,66.54963686,24.19869625,-99999.0,'11111222,11111222,99999999' 
TABS,ioos:station:wmo:42043:1,2008-12-03T13:30:00Z,28.9818,-94.9186,2.0,62.9368005,18.00102775,-99999.0,'11111222,11111222,99999999' 
TABS,ioos:station:wmo:42043:1,2008-12-03T14:00:00Z,28.9818,-94.9186,2.0,70.70599248,20.24717758,-99999.0,'11111222,11111222,99999999' 
TABS,ioos:station:wmo:42043:1,2008-12-03T14:30:00Z,28.9818,-94.9186,2.0,72.76247752,19.37001807,-99999.0,'11111222,11111222,99999999' 
TABS,ioos:station:wmo:42043:1,2008-12-03T15:00:00Z,28.9818,-94.9186,2.0,75.49380229,18.9232661,-99999.0,'11111222,11111222,99999999' 
TABS,ioos:station:wmo:42043:1,2008-12-03T15:30:00Z,28.9818,-94.9186,2.0,83.0837267,17.02388029,-99999.0,'11111222,11111222,99999999' 
TABS,ioos:station:wmo:42043:1,2008-12-03T16:00:00Z,28.9818,-94.9186,2.0,82.48986338,15.68454653,-99999.0,'11111222,11111222,99999999' 
TABS,ioos:station:wmo:42043:1,2008-12-03T16:30:00Z,28.9818,-94.9186,2.0,77.44264725,15.22418142,-99999.0,'11111222,11111222,99999999' 
TABS,ioos:station:wmo:42043:1,2008-12-03T17:00:00Z,28.9818,-94.9186,2.0,82.55063558,15.11759571,-99999.0,'11111222,11111222,99999999' 
TABS,ioos:station:wmo:42043:1,2008-12-03T17:30:00Z,28.9818,-94.9186,2.0,86.18593408,12.77830192,-99999.0,'11111222,11111222,99999999' 
TABS,ioos:station:wmo:42043:1,2008-12-03T18:00:00Z,28.9818,-94.9186,2.0,79.17169355,13.99926427,-99999.0,'11111222,11111222,99999999' 
TABS,ioos:station:wmo:42043:1,2008-12-03T18:30:00Z,28.9818,-94.9186,2.0,91.18552171,14.98320727,-99999.0,'11111222,11111222,99999999' 
TABS,ioos:station:wmo:42043:1,2008-12-03T19:00:00Z,28.9818,-94.9186,2.0,82.19396285,13.25280725,-99999.0,'11111222,11111222,99999999' 
TABS,ioos:station:wmo:42043:1,2008-12-03T19:30:00Z,28.9818,-94.9186,2.0,82.22215317,12.19216552,-99999.0,'11111222,11111222,99999999' 
TABS,ioos:station:wmo:42043:1,2008-12-03T20:00:00Z,28.9818,-94.9186,2.0,78.97312049,12.70455824,-99999.0,'11111222,11111222,99999999' 
TABS,ioos:station:wmo:42043:1,2008-12-03T20:30:00Z,28.9818,-94.9186,2.0,67.09610341,12.2563045,-99999.0,'11111222,11111222,99999999' 
TABS,ioos:station:wmo:42043:1,2008-12-03T21:00:00Z,28.9818,-94.9186,2.0,81.63288288,13.33190534,-99999.0,'11111222,11111222,99999999' 
TABS,ioos:station:wmo:42043:1,2008-12-03T21:30:00Z,28.9818,-94.9186,2.0,73.07083394,14.0801598,-99999.0,'11111222,11111222,99999999' 
TABS,ioos:station:wmo:42043:1,2008-12-03T22:00:00Z,28.9818,-94.9186,2.0,65.8299477,15.41102527,-99999.0,'11111222,11111222,99999999' 
TABS,ioos:station:wmo:42043:1,2008-12-03T22:30:00Z,28.9818,-94.9186,2.0,60.32285359,12.60317817,-99999.0,'11111222,11111222,99999999' 
TABS,ioos:station:wmo:42043:1,2008-12-03T23:00:00Z,28.9818,-94.9186,2.0,58.85869145,12.72354117,-99999.0,'11111222,11111222,99999999' 
TABS,ioos:station:wmo:42043:1,2008-12-03T23:30:00Z,28.9818,-94.9186,2.0,66.04348725,9.826520239,-99999.0,'11133222,11111222,99999999' 
TABS,ioos:station:wmo:42043:1,2008-12-04T00:00:00Z,28.9818,-94.9186,2.0,86.0077742,10.05439705,-99999.0,'11111222,11111222,99999999' 
TABS,ioos:station:wmo:42043:1,2008-12-04T00:30:00Z,28.9818,-94.9186,2.0,74.20982965,10.14274125,-99999.0,'11111222,11111222,99999999' 
TABS,ioos:station:wmo:42043:1,2008-12-04T01:00:00Z,28.9818,-94.9186,2.0,67.88603408,10.89119369,-99999.0,'11111222,11111222,99999999' 
TABS,ioos:station:wmo:42043:1,2008-12-04T01:30:00Z,28.9818,-94.9186,2.0,69.77871875,8.013944098,-99999.0,'11133222,11111222,99999999' 
TABS,ioos:station:wmo:42043:1,2008-12-04T02:00:00Z,28.9818,-94.9186,2.0,74.04635328,9.495735885,-99999.0,'11133222,11111222,99999999' 
TABS,ioos:station:wmo:42043:1,2008-12-04T02:30:00Z,28.9818,-94.9186,2.0,77.10508476,5.601258787,-99999.0,'11133222,11111222,99999999' 
TABS,ioos:station:wmo:42043:1,2008-12-04T03:00:00Z,28.9818,-94.9186,2.0,60.04646188,5.447641692,-99999.0,'11133222,11111222,99999999' 
TABS,ioos:station:wmo:42043:1,2008-12-04T03:30:00Z,28.9818,-94.9186,2.0,99.04627744,5.660406346,-99999.0,'11133222,11111222,99999999' 
TABS,ioos:station:wmo:42043:1,2008-12-04T04:00:00Z,28.9818,-94.9186,2.0,111.1485193,8.148840408,-99999.0,'11133222,11111222,99999999' 
TABS,ioos:station:wmo:42043:1,2008-12-04T04:30:00Z,28.9818,-94.9186,2.0,115.9270681,6.426857708,-99999.0,'11133222,11111222,99999999' 
TABS,ioos:station:wmo:42043:1,2008-12-04T05:00:00Z,28.9818,-94.9186,2.0,121.1187464,5.069516742,-99999.0,'11133222,11111222,99999999' 
TABS,ioos:station:wmo:42043:1,2008-12-04T05:30:00Z,28.9818,-94.9186,2.0,135.7232862,5.600732095,-99999.0,'11133222,11111222,99999999' 
TABS,ioos:station:wmo:42043:1,2008-12-04T06:00:00Z,28.9818,-94.9186,2.0,159.3157576,14.66529236,-99999.0,'11111222,11111222,99999999' 
TABS,ioos:station:wmo:42043:1,2008-12-04T06:30:00Z,28.9818,-94.9186,2.0,174.9316259,11.09337189,-99999.0,'11111222,11111222,99999999' 
TABS,ioos:station:wmo:42043:1,2008-12-04T07:00:00Z,28.9818,-94.9186,2.0,176.9315182,11.39633713,-99999.0,'11111222,11111222,99999999' 
TABS,ioos:station:wmo:42043:1,2008-12-04T07:30:00Z,28.9818,-94.9186,2.0,185.2898584,14.10005674,-99999.0,'11111222,11111222,99999999' 
TABS,ioos:station:wmo:42043:1,2008-12-04T08:00:00Z,28.9818,-94.9186,2.0,183.5698758,17.18334659,-99999.0,'11111222,11111222,99999999' 
TABS,ioos:station:wmo:42043:1,2008-12-04T08:30:00Z,28.9818,-94.9186,2.0,198.4073204,13.2372958,-99999.0,'11111222,11111222,99999999' 
TABS,ioos:station:wmo:42043:1,2008-12-04T09:00:00Z,28.9818,-94.9186,2.0,201.465083,12.98032742,-99999.0,'11111222,11111222,99999999' 
TABS,ioos:station:wmo:42043:1,2008-12-04T09:30:00Z,28.9818,-94.9186,2.0,201.3478419,18.54225984,-99999.0,'11111222,11111222,99999999' 
TABS,ioos:station:wmo:42043:1,2008-12-04T10:00:00Z,28.9818,-94.9186,2.0,196.8778398,16.87698137,-99999.0,'11111222,11111222,99999999' 
TABS,ioos:station:wmo:42043:1,2008-12-04T10:30:00Z,28.9818,-94.9186,2.0,198.9437251,19.22108218,-99999.0,'11111222,11111222,99999999' 
TABS,ioos:station:wmo:42043:1,2008-12-04T11:00:00Z,28.9818,-94.9186,2.0,199.766912,15.64169109,-99999.0,'11111222,11111222,99999999' 
TABS,ioos:station:wmo:42043:1,2008-12-04T11:30:00Z,28.9818,-94.9186,2.0,205.0356479,12.7367068,-99999.0,'11111222,11111222,99999999' 
TABS,ioos:station:wmo:42043:1,2008-12-04T12:00:00Z,28.9818,-94.9186,2.0,207.0586943,15.56361141,-99999.0,'11111222,11111222,99999999' 
TABS,ioos:station:wmo:42043:1,2008-12-04T12:30:00Z,28.9818,-94.9186,2.0,209.7067324,11.25987567,-99999.0,'11111222,11111222,99999999' 
TABS,ioos:station:wmo:42043:1,2008-12-04T13:00:00Z,28.9818,-94.9186,2.0,204.0288664,19.20427036,-99999.0,'11111222,11111222,99999999' 
TABS,ioos:station:wmo:42043:1,2008-12-04T13:30:00Z,28.9818,-94.9186,2.0,210.0199997,17.28940138,-99999.0,'11111222,11111222,99999999' 
TABS,ioos:station:wmo:42043:1,2008-12-04T14:00:00Z,28.9818,-94.9186,2.0,220.2401239,16.5325981,-99999.0,'11111222,11111222,99999999' 
TABS,ioos:station:wmo:42043:1,2008-12-04T14:30:00Z,28.9818,-94.9186,2.0,218.1053451,13.72519217,-99999.0,'11111222,11111222,99999999' 
TABS,ioos:station:wmo:42043:1,2008-12-04T15:00:00Z,28.9818,-94.9186,2.0,227.0056775,17.97860117,-99999.0,'11111222,11111222,99999999' 
TABS,ioos:station:wmo:42043:1,2008-12-04T15:30:00Z,28.9818,-94.9186,2.0,228.1928681,13.45592063,-99999.0,'11111222,11111222,99999999' 
TABS,ioos:station:wmo:42043:1,2008-12-04T16:00:00Z,28.9818,-94.9186,2.0,222.7118924,11.51380476,-99999.0,'11111222,11111222,99999999' 